CCA3322 ZUCK-ZUUU

Flight info

Callsign CCA3322
Flight time N/A
Altitude 18900
Route ZUCK DCT ZUUU
Aircraft A320/M-SDE1GH/LB1

Departure

Time 2026-04-28 12:13
Airport Chongqing Jiangbei International Airport (ZUCK)

Arrival

Time N/A
Airport Chengdu Shuangliu International Airport (ZUUU)
Time Latitude Longitude Altitude Speed Heading
2026-04-28 11:57 29.71957 106.65099 1338 ft 0 kts 198°
2026-04-28 12:01 29.71977 106.65107 1372 ft 6 kts 198°
2026-04-28 12:01 29.72015 106.65121 1372 ft 6 kts 200°
2026-04-28 12:02 29.72035 106.65132 1372 ft 2 kts 217°
2026-04-28 12:02 29.72043 106.65141 1370 ft 2 kts 260°
2026-04-28 12:02 29.72042 106.65153 1371 ft 2 kts 285°
2026-04-28 12:02 29.72041 106.65158 1371 ft 0 kts 285°
2026-04-28 12:03 29.72045 106.65141 1370 ft 5 kts 285°
2026-04-28 12:04 29.72058 106.65089 1374 ft 8 kts 286°
2026-04-28 12:04 29.72078 106.65014 1373 ft 12 kts 288°
2026-04-28 12:04 29.72088 106.64920 1373 ft 10 kts 233°
2026-04-28 12:04 29.72013 106.64889 1372 ft 13 kts 198°
2026-04-28 12:05 29.71916 106.64857 1371 ft 16 kts 196°
2026-04-28 12:05 29.71797 106.64816 1373 ft 20 kts 197°
2026-04-28 12:05 29.71697 106.64782 1372 ft 13 kts 197°
2026-04-28 12:05 29.71610 106.64752 1372 ft 13 kts 197°
2026-04-28 12:06 29.71533 106.64726 1371 ft 8 kts 197°
2026-04-28 12:06 29.71492 106.64712 1373 ft 4 kts 197°
2026-04-28 12:06 29.71481 106.64708 1372 ft 0 kts 197°
2026-04-28 12:08 29.71480 106.64708 1372 ft 1 kts 197°
2026-04-28 12:08 29.71448 106.64697 1372 ft 9 kts 197°
2026-04-28 12:09 29.71360 106.64667 1372 ft 18 kts 197°
2026-04-28 12:09 29.71231 106.64623 1372 ft 22 kts 197°
2026-04-28 12:09 29.71064 106.64566 1373 ft 28 kts 197°
2026-04-28 12:09 29.70885 106.64503 1372 ft 25 kts 197°
2026-04-28 12:10 29.70725 106.64444 1373 ft 22 kts 196°
2026-04-28 12:10 29.70613 106.64400 1374 ft 11 kts 219°
2026-04-28 12:10 29.70603 106.64329 1374 ft 9 kts 285°
2026-04-28 12:10 29.70630 106.64218 1373 ft 19 kts 286°
2026-04-28 12:11 29.70667 106.64074 1374 ft 17 kts 286°
2026-04-28 12:11 29.70683 106.64012 1371 ft 15 kts 287°
2026-04-28 12:12 29.70645 106.63924 1372 ft 12 kts 199°
2026-04-28 12:12 29.70570 106.63898 1372 ft 12 kts 196°
2026-04-28 12:12 29.70500 106.63838 1371 ft 15 kts 257°
2026-04-28 12:12 29.70522 106.63716 1374 ft 15 kts 287°
2026-04-28 12:13 29.70616 106.63702 1373 ft 28 kts 17°
2026-04-28 12:13 29.71076 106.63860 1374 ft 108 kts 17°
2026-04-28 12:13 29.72035 106.64191 1444 ft 174 kts 17°
2026-04-28 12:13 29.73260 106.64605 2192 ft 191 kts 16°
2026-04-28 12:14 29.74638 106.65069 2603 ft 224 kts 16°
2026-04-28 12:14 29.76226 106.65605 2925 ft 242 kts 16°
2026-04-28 12:14 29.77808 106.66142 3259 ft 241 kts 16°
2026-04-28 12:14 29.79427 106.66693 3611 ft 243 kts 16°
2026-04-28 12:15 29.81053 106.67242 3965 ft 243 kts 16°
2026-04-28 12:15 29.82686 106.67792 4328 ft 245 kts 16°
2026-04-28 12:15 29.84331 106.68348 4707 ft 247 kts 16°
2026-04-28 12:15 29.86076 106.68941 5058 ft 275 kts 16°
2026-04-28 12:16 29.87914 106.69420 5424 ft 271 kts
2026-04-28 12:16 29.89787 106.69184 5829 ft 273 kts 342°
2026-04-28 12:16 29.91444 106.68137 6275 ft 273 kts 325°
2026-04-28 12:16 29.93015 106.66869 6772 ft 278 kts 325°
2026-04-28 12:17 29.94346 106.65809 7211 ft 279 kts 326°